User: anonymous   Login
Location: Sperry Observatory
(40.6664°N, 74.3236°W)
Time: 13:07:23
(UTC-04:00)
Language:

UOSAT-12 - Orbit

View from above orbital plane
View from above orbital plane
View from above satellite
View from above satellite

Ground track
Ground track

The orbit data is extracted from the following two-line orbital elements,

1 25693U 99021A   14304.11237074  .00000481  00000-0  81220-4 0  6507
2 25693 064.5568 203.7906 0049717 270.6903 190.8005 14.80113589838038
Epoch (UTC): 31 October 2014 02:41:48
Eccentricity: 0.0049717
inclination: 64.5568°
perigee height: 594 km
apogee height: 664 km
right ascension of ascending node: 203.7906°
argument of perigee: 270.6903°
revolutions per day: 14.80113589
mean anomaly at epoch: 190.8005°
orbit number at epoch: 83803

The dashed part of the orbit path shows where the satellite is in the earth's shadow,  

DLR